Regional Weather Roundup
Issued by NWS

Home | Current Version | Previous Version | Text Only | Print | Product List | Glossary Off
Versions: 1 2 3 4 5 6 7 8 9 10 11 12 13 14 15 16 17 18 19 20 21 22 23 24 25 26 27 28 29 30 31 32 33 34 35 36 37 38 39 40 41 42 43 44 45 46 47 48 49 50

326
ASUS44 KJAN 302003
RWRMS

MISSISSIPPI HOURLY WEATHER ROUNDUP
NATIONAL WEATHER SERVICE JACKSON MS
300 PM CDT SAT AUG 30 2014

NOTE: "FAIR: INDICATES FEW OR NO CLOUDS BELOW 12,000 FEET WITH NO
SIGNIFICANT WEATHER AND/OR OBSTRUCTIONS TO VISIBILITY.

MSZ001>002-007>008-010>013-018>021-025>028-034>036-302100-
NORTHWEST MISSISSIPPI

CITY           SKY/WX    TMP DP  RH WIND       PRES   REMARKS
CLARKSDALE     FAIR      77  77 100 S5        30.01F
CLEVELAND      RAIN      75  74  99 CALM      29.99F
GREENWOOD      CLOUDY    78  74  87 N6        30.00F
GREENVILLE     LGT RAIN  76  73  91 NE5       29.99F
GRENADA        MOCLDY    75  72  88 N5        30.02F
OLIVE BRANCH   CLOUDY    79  79 100 S7        30.03F
OXFORD         TSTM     N/A N/A N/A SW5       30.06S
TUNICA         LGT RAIN  77  73  88 SW6       30.02F
$$

MSZ003>006-009-014>017-022>024-029>033-037>039-302100-
NORTHEAST MISSISSIPPI

CITY           SKY/WX    TMP DP  RH WIND       PRES   REMARKS
BELMONT        FAIR      86  72  62 SW5       30.03F HX  92
COLUMBUS AFB   CLOUDY    75  72  92 E3        30.02F
CORINTH        FAIR      82  72  69 S5        30.02F
GOLDN TRIANGLE TSTM      75  70  83 NW9       30.03F
STARKVILLE     TSTM      72  72 100 CALM      30.03R
TUPELO         CLOUDY    87  70  56 VRB5      30.01F HX  92
$$

MSZ040-058-302100-
CENTRAL MISSISSIPPI

CITY           SKY/WX    TMP DP  RH WIND       PRES   REMARKS
JACKSON INTL   LGT RAIN  75  73  93 S12       30.03F
JACKSON HAWKNS LGT RAIN  75  72  90 S9        30.03F
MERIDIAN KEY   LGT RAIN  75  73  93 CALM      30.06S
MERIDIAN NAS   CLOUDY    74  71  91 S5        30.05F THUNDER FOG
RAYMOND        LGT RAIN  73  68  83 MISG      30.03F
VICKSBURG      LGT RAIN  76  73  91 S12       29.98F
$$

MSZ059>079-302100-
SOUTH MISSISSIPPI

CITY           SKY/WX    TMP DP  RH WIND       PRES   REMARKS
BROOKHAVEN     LGT RAIN  73  73 100 S8        30.07S
COLUMBIA       LGT RAIN  73  73 100 S8        30.07S
HATTIESBURG    HVY RAIN  74  70  87 SW14      30.09S FOG
MCCOMB         LGT RAIN  74  72  93 S10       30.07R
NATCHEZ        CLOUDY    73  72  94 S9        30.01R
PINE BELT      CLOUDY   N/A N/A N/A SW9       30.10S
$$

MSZ080>082-302100-
COASTAL MISSISSIPPI

CITY           SKY/WX    TMP DP  RH WIND       PRES   REMARKS
BILOXI         CLOUDY    87  77  72 S13G20    30.05S HX  98
PASCAGOULA     CLOUDY    87  76  69 S12G18    30.05S HX  97
GULFPORT       CLOUDY    85  77  77 S12G20    30.04F HX  95
$$



USA.gov is the U.S. government's official web portal to all federal, state and local government web resources and services.